Wind_Speed
14 14 13 13 13 13 12 11 10 9 8 8 7 8 9 9 10 10 10 10 11 12 14 15 16 16 16 16 15 14 13 12 12 12 13 13 13 13 14 14 14 14 15 15 15 15 16 16 16 16 17 17 17 18 18 18 18 18 18 18 18 18 18 18 18 18 18 18 18 18 18 18 18 18 19 19 19 19 19 19 20 20 20 20 20 20
11 11 11 11 11 11 10 10 9 8 8 8 8 8 9 9 10 10 10 11 12 13 15 15 16 15 15 15 14 13 12 12 12 12 13 13 13 13 14 14 14 15 15 15 16 16 16 16 16 16 17 17 17 17 18 18 18 18 18 18 18 18 18 18 18 18 18 18 18 18 18 18 18 19 19 19 19 19 19 20 20 20 20 20 21 21
12 11 11 10 10 10 10 9 8 8 8 8 8 8 9 9 10 10 11 12 13 14 14 14 14 14 14 14 13 13 12 12 12 12 13 13 13 14 14 15 15 15 15 16 16 16 16 16 16 16 17 17 17 17 17 18 18 18 18 18 18 18 18 18 18 18 18 18 18 18 18 18 19 19 19 19 19 20 20 20 20 20 21 21 21 21
12 12 11 10 10 9 9 8 8 7 7 8 8 8 9 10 11 12 13 13 14 14 13 13 13 13 13 13 13 13 12 12 12 13 13 13 14 14 15 15 15 15 16 16 16 16 16 16 16 16 16 17 17 17 17 18 18 18 18 18 18 18 18 18 18 18 18 18 18 19 19 19 19 19 19 20 20 20 20 21 21 21 21 21 21 21
11 11 11 10 10 9 8 7 7 7 7 8 8 9 9 10 11 12 13 13 13 12 12 12 12 13 13 13 13 13 12 12 12 13 13 13 14 14 14 15 15 15 15 15 15 15 15 15 16 16 16 17 17 17 18 18 18 18 18 18 18 18 18 18 18 18 18 18 19 19 19 19 19 19 20 20 20 21 21 21 21 22 22 22 22 22
10 9 9 9 10 9 8 7 7 7 8 8 9 9 10 11 11 11 11 11 11 11 12 12 13 13 13 13 13 12 12 12 12 12 13 13 13 14 14 14 14 14 14 14 15 15 15 16 16 16 17 17 17 18 18 18 18 18 18 18 18 18 18 18 18 18 18 18 18 19 19 19 19 20 20 20 21 21 21 21 22 22 22 22 22 22
9 8 7 8 8 8 8 8 8 8 8 9 9 10 10 10 9 9 9 9 10 11 12 13 13 13 12 12 11 11 11 12 12 12 13 13 13 14 14 14 14 14 14 15 15 15 16 16 17 17 17 17 18 18 18 18 18 18 18 18 18 18 18 18 18 18 18 18 18 18 18 19 19 19 20 20 20 21 21 21 21 22 22 22 22 22
8 7 7 7 7 7 7 8 8 8 8 9 9 9 9 8 8 8 9 10 11 12 12 12 12 11 11 10 10 11 11 12 13 13 14 14 14 14 14 14 15 15 15 15 15 16 16 16 17 17 17 18 18 18 18 18 18 18 18 18 18 18 17 17 17 17 17 17 18 18 18 18 18 19 19 19 20 20 20 21 21 21 22 22 22 23
7 7 6 7 7 7 7 8 8 8 8 9 9 8 8 8 8 9 10 11 11 10 10 10 10 10 10 10 11 12 13 13 14 14 14 14 14 15 15 15 15 15 15 15 15 16 16 16 16 17 17 17 18 18 18 18 18 18 17 17 17 17 17 17 17 17 17 17 17 17 17 17 18 18 18 19 19 20 20 20 21 21 22 22 22 23
6 6 6 6 7 7 8 8 8 7 7 8 8 8 8 8 9 10 11 11 9 8 8 8 10 11 11 12 12 13 14 14 14 14 14 14 14 14 14 14 14 14 14 15 15 15 15 16 16 17 17 17 18 17 17 17 17 17 16 16 16 16 16 16 16 16 16 16 16 17 17 17 17 18 18 18 19 20 20 20 21 21 22 22 23 23
6 6 7 7 7 7 8 8 8 7 7 7 8 8 9 9 10 10 11 10 8 7 7 8 10 11 12 13 13 14 15 15 15 14 14 13 13 13 13 14 14 14 14 14 15 15 16 16 17 17 17 17 17 17 17 17 16 16 16 16 16 16 16 15 15 16 16 16 16 16 16 17 17 18 18 19 20 20 20 21 21 22 22 23 23 24
7 7 7 7 7 7 7 7 7 7 7 8 8 8 9 8 8 8 9 9 8 8 9 10 10 11 12 13 14 14 15 15 15 15 14 14 13 13 13 14 14 15 16 16 17 17 18 18 18 18 18 17 17 17 17 16 16 16 16 16 15 15 15 15 15 15 16 16 16 17 17 18 18 19 19 20 20 21 21 22 22 22 23 23 24 24
7 7 8 7 7 7 6 7 7 7 8 9 9 8 8 6 5 6 7 7 8 9 10 10 11 11 11 12 13 14 15 15 15 15 15 14 14 14 14 15 16 17 18 18 19 20 20 20 19 19 18 18 17 17 17 17 16 16 16 15 15 15 15 15 16 16 16 17 17 18 18 19 19 20 20 21 21 21 22 22 22 23 23 24 24 24
8 8 8 7 7 7 7 7 8 8 8 7 6 5 4 4 5 6 7 8 9 10 10 10 11 12 12 12 13 13 13 14 14 14 15 15 15 15 15 16 18 19 19 20 21 22 22 21 21 20 20 19 19 19 18 17 17 16 16 16 16 16 16 16 17 17 18 18 19 19 19 20 20 20 21 21 21 22 22 22 23 23 23 24 24 24
8 7 6 6 6 6 6 6 6 5 4 3 3 3 4 5 6 7 8 9 9 9 10 11 12 13 12 12 12 11 11 12 13 14 15 16 16 16 16 18 19 20 21 21 22 22 22 21 21 20 20 19 19 18 18 17 17 16 16 17 17 17 17 18 18 19 19 19 20 20 20 20 21 21 21 22 22 22 22 23 23 23 23 24 24 24
5 4 4 3 4 4 4 4 3 3 3 3 4 5 6 6 7 7 8 8 8 9 9 10 11 12 12 11 10 9 9 11 13 15 17 18 18 18 17 18 20 21 22 22 22 22 22 21 20 19 19 19 18 18 17 17 17 17 18 18 18 18 19 19 19 20 20 20 20 20 21 21 21 21 22 22 22 23 23 23 23 24 24 24 24 24
3 3 3 3 4 4 4 4 5 5 5 6 6 6 7 7 7 7 7 7 8 8 8 9 8 8 9 11 11 9 8 10 13 16 18 19 20 19 18 18 20 21 22 22 22 21 21 20 19 19 19 18 18 18 17 18 18 18 19 19 19 19 19 20 20 20 20 20 21 21 21 22 22 22 22 23 23 23 23 23 24 24 24 25 25 25
3 3 4 4 5 5 6 6 6 7 7 7 7 7 7 7 7 7 7 7 8 8 8 8 8 8 8 10 10 10 9 11 14 17 19 20 20 20 19 18 19 21 22 22 21 20 20 19 19 18 18 18 18 18 18 18 19 19 19 20 20 20 20 20 20 21 21 21 21 22 22 22 22 22 23 23 23 23 23 23 24 24 24 24 25 25
4 4 5 5 6 6 7 7 7 7 7 7 7 7 7 7 7 7 8 8 8 9 9 9 10 10 11 11 12 12 11 12 15 17 19 20 21 20 18 17 18 19 21 21 21 20 19 19 18 18 19 19 19 19 19 19 19 20 20 20 20 21 21 21 21 22 22 22 22 22 22 22 23 23 23 23 23 23 23 23 24 24 24 24 24 25
4 4 5 5 6 6 6 6 6 6 6 6 7 7 7 7 8 8 8 9 9 10 11 11 12 12 12 13 13 13 13 13 15 17 19 20 20 19 18 17 17 19 21 21 20 19 19 18 19 19 20 20 20 19 19 19 20 20 21 21 21 22 22 22 22 22 22 22 22 22 23 23 23 23 23 23 23 23 23 23 23 24 24 24 24 25
4 5 4 5 5 6 5 5 6 6 6 6 7 7 7 7 8 8 9 9 10 11 12 12 12 12 12 13 13 14 14 15 16 17 18 19 19 18 17 16 17 19 21 21 20 19 18 19 20 20 21 21 20 20 20 20 21 21 22 22 22 22 22 22 22 23 23 23 23 23 23 23 23 23 23 23 23 23 23 23 24 24 24 24 24 25
6 6 6 6 6 7 7 6 6 7 7 7 7 7 7 7 8 8 9 10 11 12 12 12 12 13 14 15 16 16 17 17 17 17 17 17 18 19 18 16 16 18 20 20 20 19 20 20 21 22 22 21 21 20 21 21 22 22 23 23 23 23 23 23 23 23 23 23 22 23 23 23 23 23 23 23 23 23 24 24 24 24 24 24 25 25
7 7 8 8 8 9 9 9 9 9 9 9 8 8 9 8 8 9 10 12 12 13 13 13 13 14 16 17 18 18 17 17 16 16 15 14 16 18 18 16 16 17 19 20 21 21 22 22 23 23 22 22 22 22 22 23 23 23 23 23 23 23 23 23 22 22 22 22 22 22 22 23 23 23 23 23 23 24 24 24 24 24 24 24 24 24
8 8 9 9 10 10 10 11 11 11 11 11 11 11 11 11 11 11 12 13 13 12 11 12 14 16 17 17 18 17 16 14 13 13 13 14 16 18 18 16 16 18 20 21 21 22 22 23 23 23 23 23 23 23 24 24 24 23 23 22 22 22 22 22 22 22 22 22 22 22 23 23 23 23 24 24 24 24 24 24 24 24 24 24 24 25
9 10 11 11 11 11 11 11 12 12 12 12 13 13 13 12 12 11 12 12 12 12 13 14 14 15 16 15 15 14 14 12 11 12 13 13 16 18 18 17 16 18 20 22 22 22 22 23 23 23 23 24 24 25 25 24 23 22 21 21 21 21 21 22 22 22 22 23 23 23 23 23 24 24 24 24 24 24 24 24 24 24 24 24 24 25
11 11 11 11 11 11 11 11 12 12 12 12 13 13 12 12 12 12 12 13 13 13 13 13 14 14 15 14 14 13 12 11 10 11 12 13 15 18 18 17 17 18 20 22 22 21 21 22 23 23 24 25 25 25 23 22 21 20 20 21 21 21 22 22 23 23 23 23 24 24 24 23 23 23 23 23 24 24 24 24 24 24 24 24 24 25
9 9 9 9 10 10 11 11 12 12 12 12 12 13 13 13 13 13 13 13 13 12 12 12 12 13 14 13 13 13 12 11 11 11 12 14 16 17 18 18 17 18 20 21 21 21 21 21 23 24 24 25 24 23 21 20 19 19 20 21 22 23 23 23 24 24 24 24 23 23 23 23 23 23 23 23 24 24 24 24 24 24 24 24 24 25
7 8 8 9 9 10 10 11 11 12 12 12 13 13 13 13 14 14 14 13 13 12 13 13 12 11 11 12 13 14 14 13 13 13 14 15 15 16 18 18 17 17 18 19 21 22 21 21 22 23 23 23 21 20 19 19 19 21 23 24 25 25 24 24 23 23 23 23 23 23 23 23 23 23 23 24 24 24 24 24 24 23 23 23 22 22
8 8 9 9 10 10 10 11 11 12 12 12 12 12 12 13 14 15 15 14 13 13 14 14 13 12 12 14 15 16 15 15 14 14 14 13 14 15 16 16 15 15 16 18 20 22 21 20 19 19 19 19 18 18 19 21 23 24 25 26 25 24 23 23 22 22 22 23 23 23 23 23 23 23 23 23 23 23 23 23 23 23 22 22 21 21
11 11 11 12 12 11 11 12 12 12 12 12 12 11 11 12 14 15 15 15 14 14 14 14 14 14 13 14 14 13 12 12 10 9 10 10 12 13 14 14 14 14 15 15 15 16 18 19 18 16 16 16 18 20 22 23 25 25 26 26 25 24 23 22 22 22 22 22 23 23 23 23 23 23 23 23 23 23 23 23 23 22 22 21 21 22
14 14 14 14 13 13 12 13 13 13 12 12 11 11 11 12 13 14 14 15 15 14 14 14 14 13 13 11 8 5 6 8 8 6 8 10 12 13 14 14 15 16 15 13 9 8 10 16 17 17 16 18 21 23 24 24 24 24 24 25 25 25 24 23 22 22 22 22 22 22 22 22 23 23 23 23 24 24 23 23 23 22 21 21 21 21
14 13 13 13 13 12 12 12 12 12 12 11 11 11 11 11 12 13 13 14 14 14 14 14 14 13 13 12 9 8 9 11 11 10 11 12 14 16 16 15 16 16 15 13 11 8 6 11 17 22 22 23 23 24 23 23 22 22 23 24 25 25 24 23 22 22 22 22 22 22 22 23 23 23 24 24 24 24 23 23 22 21 21 21 21 21
12 12 12 12 12 12 12 12 12 11 11 11 11 11 11 11 11 12 12 13 13 13 14 14 14 14 14 14 15 15 16 16 15 13 13 13 14 15 15 15 15 16 15 15 15 14 12 14 19 24 25 25 24 23 23 22 22 22 22 23 24 25 25 24 23 23 23 23 23 23 24 23 23 24 24 24 23 23 23 22 21 21 21 21 22 22
12 12 12 12 12 12 12 11 11 10 10 10 10 10 10 10 11 11 11 11 12 12 13 14 14 14 14 14 15 17 18 17 15 13 12 12 13 14 15 15 15 15 15 15 15 15 16 18 20 21 23 25 25 24 22 22 22 22 22 22 23 24 25 25 25 25 25 25 25 25 25 25 25 24 24 23 23 22 22 22 21 21 21 21 22 23
12 12 12 12 12 11 11 10 10 9 9 9 9 9 9 9 9 10 10 11 11 12 13 14 14 15 15 15 15 17 18 17 15 13 12 13 14 15 15 15 15 14 14 15 15 15 16 18 20 20 21 23 25 24 23 21 21 21 22 22 23 24 25 26 26 26 26 26 25 25 25 26 25 25 24 23 23 22 22 22 22 22 22 22 23 23
12 12 12 11 11 10 10 9 9 8 8 7 7 7 7 7 8 8 9 10 11 12 12 13 14 15 16 16 17 18 19 19 18 16 15 15 15 15 16 16 16 15 14 15 16 15 16 18 20 21 20 20 22 23 23 22 21 22 22 23 24 25 26 26 26 26 26 26 25 25 25 25 24 24 24 23 23 23 23 23 23 23 23 23 22 22
12 12 11 11 10 9 9 8 8 7 7 6 6 6 7 7 8 9 9 10 11 12 13 14 15 16 17 18 19 20 21 21 20 19 18 17 17 17 17 18 17 16 16 16 16 17 17 18 19 20 20 19 19 20 22 23 24 24 24 24 25 25 26 26 26 25 25 25 25 25 24 24 24 24 25 25 24 24 24 24 24 23 23 23 23 23
11 11 10 9 9 8 8 8 7 7 7 7 7 8 9 9 10 11 12 13 15 16 16 17 18 18 18 18 19 20 21 22 21 21 20 20 20 20 20 20 19 19 18 17 17 18 18 17 16 16 17 19 20 21 23 23 24 24 25 26 26 25 25 25 24 24 24 24 24 25 25 24 25 25 26 26 25 25 25 25 25 24 24 23 23 23
11 10 9 8 8 8 8 8 8 8 8 9 9 10 11 12 13 15 16 17 17 18 18 18 18 18 18 18 19 19 20 21 21 21 21 21 21 21 21 21 21 20 20 19 19 19 18 18 17 16 16 18 21 23 24 23 23 24 26 26 27 26 25 23 23 23 24 24 25 25 25 25 25 25 25 25 25 24 24 24 24 24 23 24 24 24
9 9 9 8 8 8 8 9 9 9 9 10 11 12 13 14 15 16 16 16 15 14 14 14 15 16 17 17 18 18 19 20 20 21 21 21 21 22 22 22 22 22 21 21 21 20 20 19 20 21 21 20 21 23 24 24 24 24 24 24 24 25 25 25 24 25 25 25 25 25 25 25 25 25 24 24 24 23 24 24 24 24 24 24 24 24
8 8 8 9 9 8 8 8 9 9 10 11 11 12 13 14 14 14 14 13 13 13 13 14 15 16 17 17 18 18 19 19 20 20 20 20 21 21 22 23 23 23 22 21 21 21 21 21 21 22 22 22 23 24 25 25 25 24 23 23 24 26 28 27 26 25 24 24 24 24 24 25 25 25 25 25 25 25 25 25 25 26 25 25 24 24
8 8 9 9 9 9 8 9 9 10 11 11 12 12 13 13 13 14 14 14 14 14 14 14 15 16 17 18 18 18 18 18 18 19 19 19 19 20 21 22 22 23 22 22 22 22 22 22 22 22 23 22 23 23 25 26 26 24 23 23 25 27 28 27 25 23 23 24 24 25 25 25 25 26 26 26 26 26 26 26 26 26 25 25 24 24
9 9 9 9 9 9 9 10 10 11 11 11 12 12 12 13 13 13 14 14 14 14 14 14 15 15 16 17 17 18 17 17 17 17 17 17 17 18 19 21 22 23 23 23 22 22 22 22 22 22 23 23 23 23 25 26 26 25 25 24 24 23 22 25 26 25 25 25 26 26 26 26 26 27 27 27 27 27 26 26 25 25 24 24 24 25
10 10 10 10 9 10 10 10 11 11 11 12 12 12 13 13 13 13 14 14 15 15 14 15 15 15 16 17 17 17 17 16 16 15 16 16 16 17 18 19 21 22 23 23 22 22 22 22 23 23 23 22 22 23 24 26 26 26 26 25 24 23 23 25 27 28 27 27 27 26 26 27 27 28 28 27 27 26 26 25 25 25 25 25 25 25
10 10 10 10 10 10 11 11 11 11 11 12 13 13 13 13 13 13 14 14 15 15 15 15 14 14 15 16 16 16 16 16 16 15 15 15 15 15 16 18 19 20 21 22 23 23 22 22 23 23 23 22 22 23 24 25 26 26 26 25 24 24 25 27 27 27 27 27 27 28 28 28 28 27 27 27 26 26 25 24 24 24 25 25 25 25
10 10 10 10 11 11 11 11 11 12 12 13 13 14 14 13 13 13 14 14 15 15 15 15 14 14 14 15 16 16 16 17 17 16 16 16 15 15 16 17 18 19 20 22 23 24 24 24 24 24 24 23 24 25 25 24 24 25 26 26 25 25 26 26 26 26 26 27 27 28 28 28 27 25 25 25 26 25 24 23 22 23 23 24 24 25
10 10 11 11 11 11 11 12 12 12 13 13 14 14 14 13 14 14 14 14 14 15 15 14 14 14 15 15 16 16 16 17 17 17 17 16 16 16 17 17 18 19 20 22 23 24 25 26 26 26 25 24 24 25 26 25 24 24 25 25 25 24 25 25 26 26 26 26 27 28 28 27 26 25 24 24 24 24 23 22 22 22 22 23 23 24
10 11 11 11 11 12 12 12 13 13 14 14 14 14 14 14 14 14 14 14 14 14 14 14 14 14 15 16 16 16 16 17 17 17 17 17 17 17 18 18 18 19 20 21 23 24 25 27 28 28 27 25 24 25 26 26 25 25 25 25 24 24 24 26 26 26 26 26 27 28 27 25 24 23 23 23 23 24 24 24 23 23 23 23 24 24
11 11 11 12 12 12 13 13 13 14 14 14 14 15 15 14 14 13 14 14 14 14 14 14 15 15 15 16 16 16 16 17 17 17 18 18 17 17 18 18 18 19 20 21 22 23 24 25 26 26 26 26 26 26 27 27 26 25 25 24 24 23 24 25 26 25 25 25 25 26 25 23 23 22 21 22 24 25 26 26 26 25 24 23 24 24
11 11 12 12 12 13 13 14 14 14 14 15 15 15 15 15 15 15 15 15 15 15 15 15 15 15 15 16 16 16 16 17 17 18 18 18 18 17 18 18 18 19 19 20 20 20 20 21 22 22 23 24 25 26 26 27 27 26 25 24 24 23 24 24 24 24 23 23 23 23 23 22 22 21 21 22 24 26 27 27 26 25 23 23 22 23
11 12 12 12 13 13 14 14 14 14 15 15 15 16 15 15 15 15 15 15 15 15 15 15 15 15 16 16 16 16 17 17 17 18 18 18 18 18 18 18 18 18 17 17 18 17 17 16 16 18 20 19 20 22 24 25 26 25 25 25 24 23 23 23 23 23 22 22 22 22 22 22 22 22 21 21 23 24 25 25 25 24 23 22 22 23
Wind_Direction
188 192 196 197 198 200 205 209 212 215 219 222 225 228 234 238 242 246 252 257 264 270 276 281 285 289 291 293 296 298 298 298 297 296 296 295 294 293 293 291 290 289 288 288 287 288 288 288 288 288 287 286 285 283 282 282 282 282 282 282 282 282 283 283 284 284 284 283 283 283 283 283 283 283 281 281 281 281 280 280 280 280 281 281 281 280
173 179 181 186 192 196 200 205 210 215 220 223 225 228 233 238 242 247 253 259 266 273 279 284 287 289 291 295 299 301 301 300 299 298 297 296 294 293 291 290 288 287 287 287 288 288 289 289 288 288 286 285 284 283 282 282 281 281 282 282 282 283 283 283 283 283 284 283 283 283 282 283 283 282 281 281 281 281 281 280 280 280 279 279 280 280
161 167 174 182 191 197 201 206 212 218 222 225 226 229 233 239 244 250 256 264 272 278 282 285 287 289 292 297 301 303 301 300 299 298 297 295 293 291 290 288 288 287 288 288 289 290 290 289 288 287 286 284 283 282 282 282 282 282 283 283 283 283 283 283 283 283 283 283 283 283 283 283 283 282 282 282 281 281 280 280 280 279 279 279 280 279
164 168 175 184 194 203 209 212 214 217 219 224 227 231 236 243 250 257 265 272 278 282 284 285 286 289 292 296 300 302 302 300 298 297 296 294 292 291 290 289 289 289 290 290 290 290 290 289 288 287 285 284 283 283 283 282 283 283 283 283 283 283 283 283 282 282 282 282 282 282 282 282 282 281 281 280 280 280 279 279 279 279 279 279 279 279
172 175 180 187 197 207 213 214 213 214 217 223 229 234 241 248 257 265 273 278 281 282 283 284 285 288 290 294 298 300 301 299 298 298 297 296 295 294 293 293 293 293 292 292 292 291 290 289 288 287 286 285 285 284 284 284 284 284 284 284 284 283 283 283 282 282 282 281 281 281 281 280 280 279 279 278 278 278 278 278 278 278 278 278 278 278
173 179 184 191 199 205 208 208 209 212 218 226 233 240 247 255 264 271 277 280 281 281 282 283 285 288 290 294 298 301 300 299 299 300 299 299 298 297 297 296 296 295 295 293 292 291 290 289 288 288 287 286 286 285 285 284 284 284 284 284 283 283 283 282 282 282 281 281 280 280 279 279 278 278 277 277 277 277 277 277 277 277 277 277 278 278
171 178 185 194 200 204 206 208 211 217 224 231 239 245 253 259 266 272 275 277 278 280 282 284 287 290 293 296 299 301 299 299 299 300 301 301 300 300 299 298 297 296 294 293 291 290 289 289 289 288 288 288 287 287 286 285 285 285 284 284 283 283 283 283 282 282 281 281 280 279 278 278 277 277 277 276 277 277 277 277 277 277 277 277 277 278
170 178 185 195 202 206 211 216 221 227 233 239 243 247 252 257 261 265 268 272 276 280 284 287 289 291 293 296 298 298 298 298 299 300 301 302 302 301 300 298 296 294 293 291 290 290 289 289 289 290 290 290 289 289 288 288 287 287 286 285 285 284 284 283 283 282 281 280 280 279 278 278 277 277 277 277 277 277 277 277 277 277 277 277 277 277
178 184 189 197 205 213 221 227 232 235 239 241 242 244 249 254 261 267 271 276 280 283 287 289 290 291 293 294 296 298 300 301 303 303 304 304 303 303 301 299 296 294 292 291 290 290 291 291 292 292 293 293 292 292 291 291 290 289 288 287 286 285 284 283 283 282 281 280 279 279 278 278 278 278 278 278 277 277 277 277 277 277 277 277 277 277
194 196 201 207 214 223 231 237 239 239 239 241 243 246 252 259 267 273 278 281 284 286 286 287 290 293 296 298 300 303 305 307 307 307 306 304 302 301 300 298 296 294 293 292 292 293 293 294 295 295 296 295 295 294 294 293 292 291 290 289 287 286 284 283 282 282 281 280 280 279 279 279 279 279 279 278 278 278 278 278 278 278 277 277 277 277
205 207 211 217 223 229 235 240 242 241 241 243 246 251 256 262 268 271 273 276 280 285 285 287 291 297 302 305 308 309 311 311 311 310 308 306 303 301 299 297 295 294 293 293 293 294 294 295 296 296 296 296 296 296 295 295 294 292 291 289 287 285 284 283 283 282 282 281 281 281 280 280 280 280 280 279 279 279 279 278 278 278 277 277 277 276
211 213 216 220 225 229 234 239 242 243 243 243 242 245 250 255 262 268 271 276 283 291 294 295 297 299 304 309 311 312 312 312 311 310 309 307 306 304 301 297 295 292 292 292 292 292 293 294 295 295 295 295 295 295 295 294 293 292 290 288 287 286 285 284 284 284 283 283 283 282 281 281 281 280 280 280 279 279 279 279 278 278 278 277 277 277
218 218 219 220 223 227 232 237 240 240 238 234 232 234 240 247 258 271 280 288 294 298 301 301 301 302 303 306 309 311 311 310 309 308 307 305 304 303 301 298 296 294 293 292 292 292 293 294 295 295 295 294 294 294 294 293 292 290 289 287 287 286 286 285 285 285 285 284 284 283 283 282 281 281 280 280 280 279 279 279 279 278 278 278 277 277
225 222 220 219 222 227 233 237 237 235 230 226 226 231 246 263 278 287 292 293 294 296 298 299 302 304 305 306 308 309 309 308 307 305 303 301 301 300 300 298 296 294 293 293 293 293 295 296 296 296 296 296 296 296 296 295 292 290 288 287 287 287 287 286 287 286 286 285 285 284 284 283 282 281 281 281 280 280 280 279 279 279 279 278 278 278
226 222 218 217 221 229 235 239 239 235 231 232 243 264 279 289 293 294 293 291 292 294 296 299 302 304 305 306 308 310 309 307 305 303 301 299 297 297 298 298 296 294 293 293 294 295 297 298 298 298 299 299 300 299 298 295 292 290 290 289 289 288 288 288 288 287 287 286 286 285 284 283 282 282 281 281 281 281 280 280 280 279 279 279 278 278
227 226 228 234 239 245 252 260 271 279 281 282 286 291 297 299 296 292 288 289 291 296 301 306 308 307 305 306 309 311 309 306 303 302 301 299 296 296 297 297 295 294 293 293 294 296 298 300 300 300 301 302 302 301 298 295 293 292 291 291 291 290 289 289 288 288 288 287 286 286 285 284 283 283 282 282 281 281 281 280 280 280 280 279 279 278
237 247 258 266 269 271 275 281 288 291 291 291 291 292 292 292 289 287 285 288 293 297 300 303 305 306 305 307 308 309 308 305 303 301 300 298 296 296 297 296 293 292 293 293 295 297 300 301 303 304 304 305 304 301 298 295 294 294 293 293 292 292 291 290 290 289 289 288 288 287 287 286 285 284 284 283 283 282 282 281 281 281 281 280 280 279
249 255 260 266 270 274 278 284 288 289 288 288 287 283 279 278 278 282 286 290 294 296 296 295 295 296 298 302 302 303 305 304 302 300 298 296 295 296 297 295 292 291 292 294 296 299 302 304 306 307 307 306 303 300 298 297 297 296 295 295 295 294 293 292 292 291 290 290 289 288 288 287 287 286 286 285 284 284 283 283 282 282 281 281 280 280
255 256 258 261 265 270 274 278 281 282 280 277 274 271 269 269 273 279 285 289 291 291 290 289 288 287 288 288 291 294 299 299 300 299 298 295 295 296 298 296 293 292 293 295 299 303 306 307 308 308 308 306 304 301 300 299 299 298 298 298 297 296 295 295 294 293 292 291 291 290 289 288 288 287 287 286 286 285 284 284 283 282 282 281 281 280
269 269 270 272 274 274 272 272 271 271 269 265 264 265 270 273 277 282 286 289 289 287 285 282 279 279 280 282 285 289 294 297 300 300 297 294 294 296 298 297 296 295 295 297 302 306 307 308 308 307 307 306 305 303 302 301 301 300 300 300 299 298 297 296 296 295 294 293 292 292 291 290 289 288 287 287 286 286 285 284 283 283 282 281 280 280
280 282 283 284 286 286 281 276 271 267 265 264 264 268 272 278 283 286 288 289 287 284 280 276 274 275 279 282 285 288 291 296 298 298 296 295 294 295 297 299 298 297 297 299 302 305 306 305 305 305 305 305 305 304 303 302 302 302 302 301 301 300 299 299 298 297 296 295 294 293 291 290 289 288 287 287 287 286 285 284 284 283 282 282 281 280
278 279 279 279 282 284 283 278 272 268 267 268 271 274 278 283 287 289 288 286 282 278 275 274 275 277 280 284 285 287 289 291 291 292 294 294 293 294 299 301 301 298 296 298 301 303 303 302 303 303 304 305 304 304 304 303 303 303 303 303 302 301 301 300 299 298 297 295 294 293 292 291 290 289 288 288 287 287 286 285 285 284 283 283 282 282
274 275 276 276 276 277 276 275 273 271 270 272 273 275 277 281 285 286 284 280 275 272 273 276 280 283 283 284 285 287 289 289 289 288 289 288 290 294 299 302 301 297 295 296 299 302 302 302 302 303 304 304 304 304 304 305 305 305 304 304 303 303 302 301 300 299 298 296 295 294 293 292 291 291 290 289 289 288 287 286 285 285 284 283 283 282
269 271 271 272 272 273 274 274 274 274 275 275 275 275 276 278 281 283 283 280 277 277 281 287 289 288 287 286 287 288 289 290 289 286 284 283 286 291 296 300 300 297 295 297 299 302 302 302 302 303 303 303 304 304 305 306 306 306 306 305 305 304 303 302 301 300 299 298 297 296 295 294 294 293 292 291 290 289 288 287 286 285 284 284 283 282
272 272 271 270 271 272 274 276 276 277 277 278 278 278 278 278 279 279 280 281 284 287 290 291 289 287 287 288 288 288 290 291 289 284 281 283 286 289 293 297 298 297 296 298 300 301 302 301 301 302 302 302 303 304 306 308 308 308 307 306 306 305 304 304 303 302 301 300 299 298 297 297 295 294 293 292 291 290 289 288 287 286 285 284 284 283
282 282 280 279 278 278 278 277 276 275 274 274 274 275 275 276 276 274 273 275 279 284 288 287 285 284 286 288 288 289 291 292 289 283 281 283 287 290 292 295 297 297 297 298 300 301 301 300 300 300 300 301 303 306 308 310 309 308 307 306 306 306 305 305 304 303 302 301 300 299 299 297 296 295 294 293 293 292 291 290 289 288 287 286 285 284
290 290 290 289 287 285 283 280 276 273 271 269 268 268 270 271 271 269 268 270 275 280 283 283 284 286 288 289 288 289 292 293 290 285 282 284 286 288 290 293 296 297 297 298 299 300 300 298 298 298 300 302 305 308 310 310 308 307 306 306 305 305 305 305 304 303 303 302 301 300 299 298 297 296 296 295 294 293 292 292 291 290 289 288 287 286
294 294 293 291 290 287 285 282 279 276 274 271 268 267 267 266 267 267 268 270 274 277 277 277 280 285 288 289 289 291 292 292 288 285 284 283 282 282 286 292 296 298 299 300 301 301 299 296 296 298 301 304 307 309 308 307 306 305 305 306 306 306 306 306 305 304 304 303 302 301 300 299 298 298 297 296 296 295 294 294 293 293 292 291 289 287
286 287 288 287 287 286 284 282 280 278 277 274 271 269 266 264 264 265 267 270 272 273 273 274 277 281 286 290 292 293 292 289 288 288 288 282 277 278 286 293 298 301 305 307 307 304 301 298 297 300 303 305 306 306 305 304 305 306 307 308 308 308 308 307 306 305 304 303 302 302 301 300 300 299 299 298 298 297 297 296 296 296 295 293 290 288
280 279 280 281 282 283 282 280 279 278 277 276 273 270 266 263 262 264 266 268 269 268 269 272 276 280 285 292 295 295 292 291 294 300 299 290 284 286 294 299 302 306 311 314 313 308 304 302 301 302 304 305 304 304 304 305 307 308 309 309 309 309 308 308 307 305 304 304 303 302 302 301 301 300 300 299 299 298 298 298 298 297 296 294 291 289
288 286 285 284 285 285 283 282 281 280 279 277 275 271 267 264 263 264 266 267 266 266 267 271 274 278 281 287 291 293 289 291 297 306 306 305 299 296 300 303 304 305 308 311 312 310 307 306 305 304 305 305 304 305 306 307 308 308 309 308 308 308 308 308 307 306 305 304 304 303 302 302 301 301 300 300 299 299 298 298 298 297 296 294 291 289
294 293 292 292 292 290 289 287 285 284 283 281 278 275 272 269 267 266 266 266 266 266 266 268 271 273 274 273 271 271 277 283 288 294 301 304 300 297 298 300 301 302 302 301 296 292 298 301 302 304 305 305 305 305 306 306 306 306 306 306 306 307 308 308 308 306 305 305 304 303 302 301 301 300 299 299 299 298 298 297 297 296 295 293 291 289
294 294 293 294 293 293 292 291 289 288 286 284 283 281 280 278 276 274 272 270 268 266 265 265 267 270 271 270 269 271 274 279 285 292 298 299 296 295 296 297 298 299 300 297 291 285 282 287 295 300 303 304 304 304 304 305 305 305 306 306 305 306 307 307 307 306 305 304 304 303 302 301 300 299 299 298 298 297 297 296 296 294 293 291 290 289
291 292 292 293 294 294 295 295 295 294 292 290 288 287 286 285 284 281 278 275 271 266 263 262 264 267 270 273 273 273 275 278 283 289 294 294 294 294 295 296 296 298 299 297 294 289 284 285 290 296 300 302 302 302 302 303 304 305 305 305 304 304 305 305 305 304 304 304 303 302 301 301 301 301 299 299 298 297 296 296 295 294 292 291 290 290
290 291 293 294 296 297 299 301 301 300 297 295 292 290 289 287 284 281 278 275 271 267 264 263 263 265 267 270 273 276 277 279 283 286 287 289 292 294 295 293 293 296 298 296 295 293 291 290 291 294 298 300 301 301 301 301 303 305 305 304 303 302 302 303 303 303 303 303 302 301 301 301 302 301 300 299 298 297 297 296 295 294 292 291 291 290
291 292 294 297 299 302 305 307 307 303 299 294 289 284 280 276 273 271 269 267 265 264 263 263 264 265 266 268 270 274 277 280 283 285 285 285 287 289 290 288 289 292 293 293 292 292 292 292 293 294 295 296 298 299 301 303 304 305 304 303 302 302 302 302 302 302 302 301 300 300 301 301 301 300 299 298 297 296 296 295 294 293 292 291 289 288
292 294 297 300 303 306 307 307 304 299 295 289 283 276 271 268 267 266 265 264 264 264 264 265 266 266 267 267 269 272 275 279 281 282 282 281 281 281 282 282 283 284 285 286 288 289 291 292 293 293 292 290 292 296 300 304 305 305 303 303 303 302 302 302 302 302 301 300 300 300 300 300 299 298 297 297 296 296 295 294 293 293 291 290 288 286
292 295 298 301 302 303 303 300 298 296 294 290 286 281 277 275 274 273 273 272 272 272 272 272 272 272 271 271 271 272 274 277 278 279 279 278 277 276 275 277 278 278 277 277 280 283 286 287 289 291 291 289 289 292 295 300 302 302 302 303 302 302 301 302 303 303 302 300 299 299 298 298 297 297 297 297 297 296 295 294 294 293 292 290 289 287
292 294 295 294 294 295 297 299 301 299 297 292 288 285 282 282 281 282 282 282 281 280 280 279 278 278 277 276 275 275 275 276 277 279 279 278 277 275 273 273 274 275 275 274 275 276 277 278 280 283 286 289 291 292 293 295 297 298 301 303 303 302 301 302 302 302 301 299 299 298 298 297 297 297 297 296 296 294 293 293 293 292 292 290 289 288
290 290 290 289 290 292 295 297 297 296 294 292 289 288 290 292 294 296 296 294 291 288 286 285 284 284 283 281 279 278 277 278 280 282 282 281 279 277 274 272 272 274 275 275 273 271 270 271 273 276 279 282 286 289 292 292 293 295 299 301 301 301 301 302 301 300 299 298 297 297 297 298 298 297 296 294 293 291 290 290 290 290 290 289 288 287
286 286 287 290 291 293 293 292 292 292 292 294 296 297 299 302 303 304 303 300 296 293 291 290 290 289 287 284 281 280 280 281 282 284 284 284 283 281 279 275 273 273 274 273 272 270 268 268 270 273 276 278 281 285 287 288 290 293 295 295 295 296 298 299 299 299 299 298 297 297 297 297 297 296 294 293 291 290 288 287 287 287 288 286 285 284
284 285 287 290 291 291 290 290 291 292 294 298 301 302 303 303 302 301 299 297 295 293 292 292 292 290 289 287 284 283 282 282 283 285 286 286 286 285 283 280 277 275 273 271 270 268 268 267 268 270 273 275 278 282 285 287 288 290 290 290 292 295 297 298 298 298 298 298 297 297 296 296 295 294 293 292 290 289 288 287 286 285 284 284 282 281
282 284 287 289 290 290 290 290 293 297 300 301 300 299 299 299 298 297 295 294 292 292 291 291 291 290 288 288 288 287 286 285 286 286 287 288 288 287 286 284 281 278 274 270 268 269 269 269 268 268 271 273 275 278 282 285 288 288 288 288 290 293 295 296 297 298 298 297 296 296 295 294 293 292 292 291 290 288 287 285 284 282 281 280 280 279
281 284 286 288 288 289 290 294 298 301 301 300 299 298 297 297 297 296 293 291 290 290 290 290 291 290 287 286 288 290 291 290 289 288 287 287 287 287 286 285 284 280 275 269 267 269 271 272 272 272 273 274 274 276 279 283 285 286 287 287 286 285 285 289 293 296 296 295 295 294 293 293 293 292 292 290 289 287 286 285 283 282 281 280 279 279
282 283 285 287 290 292 295 297 299 299 299 298 297 297 297 299 300 298 293 291 290 289 288 290 290 288 286 286 289 292 294 294 293 291 288 287 286 285 283 283 282 280 277 272 269 268 270 273 275 277 277 276 275 274 276 279 282 284 285 285 285 283 282 284 287 290 291 292 292 293 293 293 293 292 291 290 289 288 286 284 282 281 281 281 279 278
284 285 287 289 291 294 295 296 297 298 298 297 297 297 299 301 301 298 294 291 290 290 289 289 287 284 283 286 290 293 295 295 295 294 292 291 289 287 285 283 282 280 278 276 273 271 270 271 274 278 280 279 278 276 275 276 279 281 283 284 285 284 284 284 284 285 286 287 289 290 292 293 292 290 288 288 289 288 286 284 282 282 282 282 281 279
284 286 288 290 292 293 294 295 297 297 297 296 296 296 298 300 300 297 294 292 291 290 291 290 286 282 282 286 290 292 293 294 294 295 295 294 293 292 290 288 286 284 281 278 275 273 271 271 271 273 275 277 278 278 277 277 277 278 280 282 284 284 283 283 283 284 284 285 285 287 289 291 291 289 287 288 288 288 289 288 287 286 285 284 283 282
284 286 288 290 291 292 293 295 295 295 294 294 295 296 296 298 297 295 293 293 292 292 292 290 288 285 285 286 287 288 289 290 291 293 294 294 294 294 293 291 289 287 284 282 279 277 274 273 271 269 269 270 272 275 277 277 277 276 277 279 281 281 280 281 283 284 284 283 283 284 286 286 285 285 287 289 290 291 292 292 292 290 288 286 285 283
283 285 287 289 290 291 291 292 292 291 290 291 293 293 294 296 295 292 291 291 291 290 288 287 286 285 285 285 285 286 286 287 288 290 291 292 293 294 294 293 292 290 289 286 284 281 279 276 273 268 265 263 264 268 272 275 276 276 276 276 277 277 278 280 282 284 284 283 284 285 285 284 283 284 286 289 291 293 294 294 293 292 289 287 285 283
283 285 286 287 288 287 287 288 289 288 288 289 290 290 291 292 292 292 291 290 289 286 283 282 282 282 283 284 285 285 286 286 287 287 288 290 292 292 292 292 293 293 293 291 290 288 285 283 280 276 270 263 260 262 265 270 274 276 276 276 275 276 277 279 282 284 285 285 286 288 289 288 288 288 289 290 291 292 293 293 292 291 290 288 286 283
284 285 285 285 285 285 286 287 288 288 287 287 287 287 287 288 289 289 289 288 286 283 281 280 279 279 281 282 283 284 284 284 284 285 286 288 289 290 290 290 291 292 292 294 295 295 294 292 290 287 283 275 267 262 262 267 272 276 277 278 278 278 278 280 283 286 287 289 290 292 293 293 292 291 290 289 290 290 290 291 291 291 291 290 287 285
Height
805 806 807 808 809 810 811 811 811 812 812 812 813 813 814 814 814 814 814 814 814 814 814 813 813 813 812 812 812 811 811 811 810 810 810 810 810 810 810 810 810 810 810 809 809 809 809 809 808 808 808 808 809 809 809 810 810 809 809 809 808 808 807 807 806 806 806 805 805 805 805 804 804 804 804 803 803 803 803 803 803 803 803 803 802 802
805 806 807 808 808 809 810 810 811 811 811 812 812 813 813 814 814 814 813 813 813 813 813 812 812 812 811 811 811 810 810 809 809 809 809 809 809 809 809 809 809 809 809 808 808 808 807 807 807 807 807 807 808 808 808 808 808 808 808 807 807 806 806 805 805 804 804 804 804 803 803 803 803 802 802 802 802 801 801 801 801 801 801 801 801 800
805 806 807 807 808 808 809 809 810 810 811 811 812 812 812 812 812 812 812 812 812 812 812 811 811 811 810 810 809 809 809 808 808 808 808 808 808 808 808 808 808 808 807 807 807 806 806 806 806 806 806 807 807 807 807 807 807 806 806 805 805 804 804 804 803 803 803 802 802 802 801 801 801 801 800 800 800 800 800 800 799 799 799 799 799 799
804 805 806 807 807 808 809 809 809 810 810 810 811 811 811 811 811 811 811 811 811 811 811 811 810 810 810 809 809 808 808 807 807 807 807 807 807 807 807 807 807 806 806 806 805 805 805 805 805 805 805 806 806 806 806 805 805 805 804 804 803 803 802 802 802 801 801 801 800 800 800 799 799 799 799 799 799 798 798 798 798 798 797 797 797 797
805 805 806 806 807 807 808 808 809 809 809 809 810 810 810 810 810 810 810 810 810 810 810 810 810 809 809 808 808 807 807 807 807 806 806 806 806 806 806 805 805 805 805 804 804 804 804 804 804 805 805 805 805 804 804 804 804 803 803 802 802 801 801 800 800 800 799 799 799 799 798 798 798 797 797 797 797 796 796 796 796 796 796 795 795 795
805 805 806 806 807 807 808 808 808 808 809 809 809 809 809 809 809 809 809 809 809 809 809 809 809 808 808 807 807 806 806 806 806 806 805 805 805 804 804 804 804 804 804 804 804 804 804 804 804 804 804 804 804 803 803 802 802 802 801 801 800 800 799 799 799 798 798 798 797 797 797 796 796 796 795 795 795 794 794 794 794 794 794 794 794 793
805 805 806 806 807 807 807 807 807 808 808 808 808 808 808 808 808 808 808 808 809 808 808 808 808 807 807 806 806 806 806 805 805 804 804 804 803 803 803 803 803 803 803 803 803 803 803 803 803 803 803 802 802 802 801 801 800 800 799 799 799 798 798 797 797 797 796 796 795 795 795 794 794 794 794 793 793 793 793 792 792 792 792 792 792 791
805 805 806 806 806 806 806 806 807 807 807 807 807 807 807 807 807 807 808 808 808 807 807 807 806 806 806 806 805 805 805 804 804 803 802 802 802 802 802 802 802 802 802 802 802 802 802 802 802 802 801 801 801 800 800 799 799 799 798 798 797 797 796 796 795 795 794 794 794 793 793 793 792 792 792 791 791 791 791 791 790 790 790 790 790 789
804 805 805 805 805 805 806 806 806 806 806 806 806 806 806 806 806 807 807 807 806 806 806 806 805 805 805 805 804 804 804 803 802 802 801 801 801 801 801 801 801 801 801 801 801 801 801 801 801 800 800 800 799 799 798 798 797 797 796 796 795 795 794 794 794 793 793 792 792 792 791 791 790 790 790 790 789 789 789 789 789 789 788 788 788 788
804 804 804 804 804 805 805 805 805 805 805 805 805 805 805 806 806 806 806 805 805 805 805 805 805 804 804 804 803 803 802 802 801 801 800 800 800 800 800 800 800 800 800 800 800 800 800 800 799 799 799 798 798 797 797 796 796 795 795 794 794 793 793 792 792 792 791 791 790 790 789 789 789 789 789 788 788 788 788 787 787 787 787 786 786 786
804 804 804 804 804 804 804 804 805 805 805 805 805 805 805 805 805 805 804 804 804 804 804 804 804 804 803 802 802 802 801 800 800 800 799 799 799 799 799 799 799 799 799 799 799 799 799 798 798 798 797 797 796 796 795 794 794 794 793 793 792 792 791 791 790 790 789 789 789 789 788 788 788 787 787 787 786 786 786 785 785 785 785 784 784 784
803 803 803 803 803 804 804 804 804 804 804 804 804 804 804 804 804 804 804 803 803 804 804 804 803 803 802 802 801 800 800 800 799 799 799 799 799 799 799 799 799 798 798 798 798 797 797 797 796 796 795 795 794 794 794 793 793 792 792 791 791 790 790 789 789 789 788 788 787 787 787 786 786 786 785 785 785 784 784 784 784 783 783 782 782 782
803 803 803 803 803 803 803 803 804 804 804 804 804 804 803 804 803 803 803 803 803 803 803 803 802 802 802 801 801 800 800 799 799 799 798 798 798 798 798 798 797 797 797 796 796 796 795 795 795 794 794 793 793 793 792 791 791 790 790 789 789 789 788 788 788 787 787 786 786 785 785 785 784 784 784 783 783 782 782 782 781 781 781 780 780 780
802 802 803 803 803 803 803 803 803 803 803 803 803 803 803 803 803 803 802 802 802 802 802 802 801 801 801 801 800 800 800 799 798 798 797 797 797 797 797 797 796 795 795 795 794 794 794 794 793 792 792 792 791 791 790 790 789 789 789 788 788 787 787 786 786 785 785 785 784 784 784 783 783 782 782 781 781 780 780 780 779 779 779 778 778 778
802 802 802 802 802 802 802 802 802 802 802 802 802 802 802 802 802 802 802 802 802 802 802 801 801 800 800 800 800 800 799 799 798 797 797 796 796 797 796 796 795 794 794 793 793 792 792 792 791 791 790 790 789 789 789 788 788 787 787 787 786 786 785 785 784 784 784 783 783 782 782 781 781 780 780 779 779 779 778 778 777 777 777 776 776 775
802 802 802 802 802 802 802 802 802 802 802 801 801 801 801 801 802 802 802 802 802 802 801 801 800 800 799 799 799 799 799 799 798 797 796 795 795 795 796 795 794 793 792 792 791 791 790 790 790 789 789 788 788 787 787 787 786 786 785 785 785 784 784 783 783 782 782 781 781 780 780 779 779 778 778 777 777 776 776 776 775 775 774 774 774 773
801 801 801 801 801 801 801 801 801 801 801 801 801 801 801 801 801 802 802 802 801 801 801 801 800 800 799 799 799 799 799 799 798 796 795 794 794 794 794 794 793 791 790 790 790 789 789 788 788 787 787 786 786 786 785 785 785 784 784 784 783 783 782 782 781 781 780 780 779 779 778 778 777 776 776 775 775 774 774 774 773 773 772 772 771 771
801 801 801 801 801 801 801 801 801 801 801 801 801 801 801 801 801 801 801 801 801 801 801 801 800 800 799 799 798 798 799 799 798 796 795 794 793 793 793 793 792 790 789 788 788 788 787 787 786 786 785 785 785 784 784 784 783 783 782 782 781 781 780 780 779 779 779 778 777 777 776 775 775 774 774 773 773 772 772 771 771 770 770 769 769 769
801 801 801 801 801 801 800 800 800 800 800 800 800 800 801 801 801 801 801 801 801 800 800 800 800 799 799 799 798 798 798 798 797 796 794 792 791 791 791 791 790 789 787 786 786 786 785 785 784 784 784 784 783 783 783 782 782 781 781 780 780 779 779 778 778 777 777 776 775 775 774 774 773 772 772 771 771 770 770 769 769 769 768 768 767 767
801 801 801 800 800 800 800 800 800 800 800 800 800 800 800 800 800 800 800 800 800 800 800 799 799 799 799 798 798 798 798 798 797 795 793 791 790 789 789 789 788 787 785 785 784 784 784 784 783 783 783 782 782 781 781 781 780 780 779 779 778 778 777 776 776 775 774 774 773 773 772 772 771 770 770 769 769 768 768 767 767 766 766 765 765 765
800 800 800 800 800 800 800 800 800 800 800 800 799 799 799 799 799 799 799 799 799 799 799 799 799 798 798 797 797 797 797 797 796 794 792 790 788 788 788 788 787 785 784 783 783 783 783 782 782 781 781 781 780 780 779 779 779 778 777 777 776 775 775 774 774 773 773 772 771 771 770 769 769 769 768 767 767 766 766 765 765 764 764 763 763 762
800 800 800 800 800 799 799 799 799 799 799 799 799 799 799 799 799 799 799 799 799 799 799 798 798 797 797 796 796 796 796 796 795 794 792 789 787 785 786 786 786 784 783 782 782 782 781 781 780 780 779 779 779 778 778 777 777 776 775 775 774 774 773 772 772 771 770 770 769 769 768 768 767 767 766 765 765 764 764 763 763 762 762 761 761 760
799 799 799 799 799 799 799 799 799 799 799 799 799 799 798 799 799 799 799 799 798 798 797 797 796 796 796 795 795 795 795 795 794 794 792 789 786 784 785 785 785 783 782 781 780 780 780 779 779 778 778 778 777 777 776 775 775 774 774 773 772 771 771 770 770 769 769 768 768 767 766 766 765 765 764 764 763 762 762 761 761 760 759 759 759 758
799 799 799 799 799 799 799 798 798 798 798 798 798 798 798 798 798 798 798 798 797 797 796 796 795 795 794 794 794 794 793 793 793 793 791 789 786 784 784 784 784 782 781 780 779 779 779 778 777 777 776 776 775 775 774 774 773 772 772 771 770 770 769 769 768 768 767 766 766 765 764 764 764 763 762 762 761 760 760 759 759 758 757 757 756 756
798 798 798 798 798 798 798 798 798 798 797 797 797 797 797 797 797 797 797 797 797 796 796 795 795 794 793 793 793 792 792 792 792 792 791 788 785 784 783 784 783 782 780 779 778 778 777 776 775 775 774 774 774 773 773 772 771 770 770 769 769 768 768 767 767 766 765 764 764 763 763 762 761 761 760 759 759 758 758 757 756 756 755 755 754 754
798 798 797 797 797 797 797 797 797 797 797 797 797 797 797 797 797 797 796 796 796 795 795 794 794 793 792 792 791 791 791 791 791 791 790 788 785 783 782 783 783 782 779 778 777 777 776 775 774 773 773 772 772 771 771 770 769 769 769 768 767 767 766 765 765 764 763 763 762 761 760 760 759 759 758 758 757 756 755 755 754 754 753 753 752 751
797 797 797 796 796 796 796 796 796 796 796 796 796 796 796 796 796 795 795 795 795 795 794 794 793 792 791 791 790 790 790 790 790 790 789 788 786 783 782 782 782 781 779 777 776 776 775 774 772 771 771 770 770 769 769 769 768 768 767 766 766 765 764 764 763 762 761 760 760 759 759 758 758 757 756 755 755 754 754 753 752 752 751 750 749 749
796 796 796 796 796 795 795 795 795 795 795 795 795 795 795 795 794 794 794 794 794 794 794 793 792 791 790 790 789 789 789 789 789 789 788 788 786 783 782 782 781 781 779 777 775 774 774 773 771 770 769 769 768 768 768 767 767 766 765 764 764 763 762 761 761 760 759 759 758 758 757 756 756 755 754 754 753 752 752 751 750 750 749 748 747 746
796 796 795 795 795 795 794 794 794 794 794 794 794 794 794 794 794 793 793 793 793 793 792 792 792 791 790 789 788 788 788 788 788 787 787 787 785 783 782 781 781 780 779 777 774 772 771 771 770 769 768 768 767 767 766 766 765 764 763 762 762 761 760 760 759 758 758 757 756 756 755 754 754 753 752 752 751 750 749 749 749 748 747 746 745 744
795 795 794 794 794 794 794 793 793 793 793 793 793 793 793 793 792 792 792 792 792 792 791 791 791 790 790 789 788 787 786 786 787 787 787 786 784 782 782 781 781 780 780 779 775 772 769 768 768 768 768 767 766 765 765 764 763 762 761 760 759 759 759 758 758 757 756 755 755 754 754 753 752 751 750 750 749 748 748 747 747 746 745 744 743 742
794 794 794 793 793 793 792 792 792 792 791 791 791 791 791 791 791 791 791 791 791 791 790 790 790 790 790 790 789 787 785 785 786 787 786 785 784 782 782 781 780 780 780 780 779 775 770 766 765 766 766 766 765 764 763 763 762 761 760 759 758 757 757 757 756 755 754 754 753 752 752 751 750 749 749 748 747 746 746 745 745 744 743 742 741 740
793 793 793 792 792 792 791 791 791 790 790 790 790 790 790 790 790 790 790 790 790 790 790 790 789 789 789 789 789 787 785 785 785 786 786 785 784 782 782 781 780 779 779 780 780 778 774 769 765 764 764 764 764 763 762 761 761 760 759 758 757 756 755 755 754 754 753 752 751 750 750 749 748 747 747 746 745 744 744 743 743 742 741 740 739 739
792 792 792 791 791 791 790 790 790 789 789 789 789 789 789 789 789 789 789 789 789 789 789 789 789 789 788 788 787 786 785 784 785 785 786 785 784 782 781 781 780 779 779 779 779 778 776 772 768 765 763 762 762 761 760 760 759 759 758 757 755 754 754 754 753 752 751 750 749 749 748 747 746 745 744 744 743 742 742 741 741 741 740 739 738 737
792 791 791 790 790 790 789 789 789 789 789 788 788 788 788 788 788 788 788 788 788 788 788 788 788 788 787 787 786 785 784 784 784 785 785 784 783 782 781 780 780 779 778 777 777 776 774 772 770 767 764 761 760 760 759 759 758 757 757 756 755 754 752 752 751 750 749 748 747 746 745 744 744 743 742 742 741 740 740 739 739 739 738 738 736 735
791 790 790 789 789 789 789 788 788 788 788 788 788 788 788 788 788 788 788 788 788 788 787 787 787 787 787 786 785 784 783 783 784 784 784 784 783 782 780 779 779 779 778 777 776 775 773 771 770 768 766 762 759 758 758 758 757 756 755 755 754 753 751 750 750 749 748 746 745 744 743 743 742 741 740 740 739 739 738 738 737 737 736 736 735 734
790 789 789 789 788 788 788 788 788 788 787 787 788 788 787 787 787 787 787 787 787 787 786 786 786 786 786 785 784 783 782 782 782 783 783 783 782 782 780 779 779 778 778 776 775 774 773 771 769 768 766 763 759 757 755 755 755 755 754 753 752 751 750 749 749 747 746 745 744 743 742 741 740 739 739 738 737 737 736 736 735 734 734 734 733 732
789 789 788 788 788 788 787 787 787 787 787 787 787 787 786 786 786 786 786 786 785 785 785 785 784 784 784 784 783 782 781 781 781 781 781 781 781 781 780 778 778 778 777 776 775 774 773 771 768 766 765 763 761 758 755 754 754 753 752 751 750 749 748 747 747 746 745 744 742 741 740 739 739 738 737 736 735 735 734 733 733 732 731 731 730 730
788 788 788 788 787 787 787 787 787 787 786 786 786 786 785 785 785 785 784 784 784 784 784 783 783 783 783 782 782 781 780 780 779 779 780 780 780 779 779 777 776 776 776 775 774 773 772 770 768 766 763 761 760 758 756 754 753 751 750 749 749 748 747 746 745 744 744 742 741 740 739 738 737 736 735 734 733 732 731 730 730 729 729 728 727 727
788 787 787 787 787 787 787 786 786 786 786 785 785 785 784 784 784 784 784 783 783 782 782 782 781 781 781 780 780 779 779 778 778 778 778 778 778 778 777 776 775 774 774 774 773 772 771 770 768 765 763 760 758 756 755 754 753 751 749 747 746 745 745 744 744 743 742 741 739 738 737 736 735 734 733 732 731 730 729 728 728 727 727 726 725 724
787 787 787 787 787 787 786 786 786 786 785 785 784 784 784 784 783 783 783 782 782 781 781 780 780 779 779 779 778 778 777 777 776 776 776 776 776 776 775 774 774 773 772 772 771 770 769 768 766 764 763 761 758 755 754 752 752 751 749 747 744 743 742 742 742 741 740 739 738 737 735 734 734 733 731 730 729 729 728 727 726 725 725 724 723 722
787 787 786 786 786 786 786 786 785 785 785 784 784 784 783 783 783 782 782 781 781 780 780 780 779 779 778 777 777 776 776 775 775 774 774 774 774 774 773 773 772 771 770 770 769 768 768 766 765 763 761 760 758 755 753 751 750 750 749 747 744 742 740 740 740 739 738 737 736 735 734 733 732 731 729 729 728 727 726 725 724 723 723 722 721 720
786 786 786 786 786 786 785 785 785 784 784 784 783 783 783 782 782 781 781 780 780 779 779 779 778 778 777 776 775 775 774 774 774 773 773 772 772 772 771 771 770 770 769 768 767 766 765 764 763 761 759 758 756 754 751 749 748 748 748 746 744 741 739 737 737 737 737 735 734 734 733 731 730 729 727 726 725 724 723 723 722 721 720 719 719 718
786 786 786 785 785 785 785 784 784 784 783 783 783 783 782 782 782 781 780 780 779 779 779 778 778 777 775 774 774 773 773 772 772 772 771 771 770 770 770 769 769 768 768 767 765 764 763 762 761 759 758 757 755 753 750 748 746 746 745 744 744 742 739 735 734 734 734 734 733 732 731 729 728 726 725 724 723 722 721 720 719 719 718 717 717 715
786 785 785 785 785 784 784 784 784 783 783 783 782 782 781 781 781 780 780 779 779 778 778 777 776 776 774 773 772 771 771 771 770 770 770 769 769 769 768 768 767 766 766 765 764 762 761 759 759 757 756 755 754 751 749 747 745 744 743 742 742 741 739 735 733 733 732 731 730 729 729 727 726 724 723 721 720 719 719 718 717 716 715 715 714 713
785 785 785 784 784 784 784 783 783 783 782 782 781 781 781 780 780 779 779 778 778 777 777 776 776 775 773 772 771 770 770 769 769 769 768 768 768 768 767 766 766 765 764 764 762 761 760 758 756 755 754 754 752 750 748 745 743 742 740 740 739 739 736 734 733 732 731 729 728 727 726 725 724 723 721 719 718 717 716 715 714 713 713 712 711 710
784 784 784 784 784 783 783 783 782 782 782 781 781 780 780 779 779 779 778 778 777 776 775 775 775 774 772 771 770 769 769 768 767 767 767 766 766 766 765 765 764 764 763 762 761 759 758 757 755 754 752 751 749 747 745 744 742 740 738 737 737 736 734 733 731 730 729 728 726 725 724 723 723 721 719 717 715 714 713 713 712 711 710 709 709 708
784 784 784 783 783 783 782 782 782 781 781 780 780 779 779 779 778 778 777 777 776 775 774 774 774 773 772 770 769 769 768 767 766 765 765 764 764 764 763 763 762 761 760 759 759 757 756 755 754 753 751 749 747 744 742 742 741 739 737 736 735 734 732 730 729 728 728 726 725 723 722 722 721 719 717 715 713 712 711 711 710 709 709 708 707 706
784 783 783 783 782 782 782 781 781 780 780 779 779 778 778 778 777 777 776 775 775 774 774 773 772 772 770 769 769 768 767 766 765 764 763 763 762 762 761 760 760 759 758 757 756 755 754 752 751 750 750 748 745 742 739 739 738 737 736 734 733 732 729 728 727 726 725 724 723 722 721 720 719 717 715 713 711 710 709 708 708 708 707 706 705 704
783 783 782 782 782 781 781 780 780 779 779 778 778 777 777 776 776 776 775 774 774 774 773 772 771 770 769 768 768 767 766 765 764 763 762 761 761 760 759 759 758 757 756 754 753 752 750 749 748 747 747 746 744 741 738 736 735 735 734 733 731 730 728 726 724 724 723 722 721 720 719 719 718 716 714 712 710 708 707 706 705 705 705 704 703 702
782 782 781 781 781 780 780 779 779 778 778 777 777 776 775 775 775 774 774 774 773 772 772 771 770 769 768 767 766 765 764 764 763 761 760 760 759 759 758 757 756 755 754 752 751 749 748 746 744 743 743 743 742 740 737 734 733 732 731 730 729 728 726 724 723 722 721 720 719 718 718 717 716 715 714 712 709 707 705 704 703 702 702 702 701 700
781 781 781 780 780 779 779 779 778 777 777 776 775 775 774 774 774 773 773 772 771 771 770 769 769 768 767 765 764 764 763 762 761 760 759 758 758 757 756 755 755 754 752 751 749 747 746 744 741 739 739 739 739 738 736 734 732 730 729 727 727 726 725 723 721 720 720 719 718 717 716 715 714 713 712 711 708 705 703 701 700 699 699 699 699 697